Weather in Khodosivka

Ukraine / Kyiv Region     50°15′33″N   30°32′04″E
temp.,
°C
wind,
m/s
gust,
m/s
humid.,
%
clouds,
%
prec.,
mm/h
press.,
hPa
HPBL,
m
12 may, wed
wed1200:00+11e49966 0.1 1018330
03:00+9e410923 0.1 1018334
06:00+6e411930 0.0 1019394
09:00+10e797586 0.1 10191107
12:00+12e796787 0.2 10181422
15:00+12e5861100 0.3 10161525
18:00+13e5669100 0.1 10151065
21:00+9e348695 0.2 101377
13 may, thu
thu1300:00+7se1192100 0.0 101222
03:00+7ssw2292100 0.0 101126
06:00+6sse2392100 0.0 101160
09:00+11s5673100 0.0 1011676
12:00+14sse6758100 0.0 10101528
15:00+13ssw6969100 0.1 1010864
18:00+12sse51277100 0.0 1009571
21:00+11se41186100 0.0 1009356
14 may, fri
fri1400:00+10sse31094100 0.8 1009433
03:00+11se4119152 1.4 1008329
06:00+8se399217 0.0 1008191
09:00+14sse476782 0.0 1008410
12:00+16sse456975 0.1 1007704
15:00+20sse6859100 0.2 10061707
18:00+16s588064 1.5 1005610
21:00+11sw499479 2.2 1007406
15 may, sat
sat1500:00+11sw399550 0.0 1008256
03:00+10sw410947 0.0 1008203
06:00+9sw399528 0.0 1010225
09:00+14sw58786 0.0 1010679
12:00+16sw796476 0.2 10111440
15:00+17wsw676396 0.3 10111445
18:00+17wsw466740 0.3 10111153
21:00+12wsw228580 0.3 101211
16 may, sun
sun1600:00+10wsw228911 0.0 101211
03:00+10sse22891 0.0 101311
06:00+10ene11865 0.0 101310
09:00+16e336896 0.0 1013359
12:00+20e3459100 0.0 1012849
15:00+22ese5657100 0.0 10101616
18:00+20e467380 0.7 1009556
21:00+16ne4888100 0.9 1007166